CZ-6A DEB, 60643

Orbit data source: Space-Track

CZ-6A DEB, 60643 is space debris in LEO originally from a launch on Tue, 06 Aug 2024 UTC launched from the Taiyaun Space Center, China (TSC). Debris objects in space refer to the collection of defunct objects orbiting the Earth. Examples of debris include non-operational satellites, rocket bodies, and fragments generated from explosions, collisions, or faulty payload assembly.

Loading next visibility...
Identifier
60643, 2024-140AU
Orbit
LEO
Country
Flag of CNCN / PRC
Related business
Manufacturer
SAST
Mission
Spacecraft
Bus & Motor
Unknown
Mass
Unknown
Launch date (UTC)
2024-08-06 (2 years ago)
Launch vehicle
Unknown
Launch site
Taiyaun Space Center, China (TSC)
Object type
Payload
Rocket body
Debris
Shape & HBR
Unknown shape, 0.1 m
Radar Cross Section
Small (<0.1 m²)

Expand to show TLE details & history
Last TLE update: 17 hours ago

TLE from 17 hours ago
0 CZ-6A DEB
1 60643U 24140AU  26171.28430054  .00002329  00000-0  65624-3 0  9995
2 60643  88.9697 269.0795 0046580 332.7008  27.1748 14.44906204 98204
Epoch: 2026-06-20T06:49Z
TLE epoch observation values (Epoch: 2026-06-20T06:49:23.566Z)
Latitude
-0.00003°
Longitude
-101.76982°
Altitude
715.943 km
Speed
7.513 km/s
True Right ascension
17h 56m 19s
True Declination
0° 00' 00"
Sunlit
Object was in full shadow at epoch
Visualization orbit readout
Latitude
Unknown
Longitude
Unknown
Altitude
Unknown
Speed
Unknown
Apparent Right ascension
Unknown
Apparent Declination
Unknown
Sunlit
N/A
Visualization observer readout
Local Sidereal Time
10:18:04
Azimuth
Unknown
Elevation
Unknown
Doppler factor
Unknown
Orbital elements
Apogee altitude
772.403 km
Perigee altitude
706.097 km
Semi-major axis
7,117.387 km
Eccentricity
0.00466
Inclination
88.9697°
RAAN
269.0795°
Arg. of periapsis
332.7008°
True anomaly
27.41984°
Mean anomaly
27.1748°
Eccentric anomaly
27.29719°
Mean motion
3.61462 °/min
Orbital period
99.6 mins
BSTAR
0.00065624
Loading maneuver chart data...
Computing Atmospheric mass density...
Loading historical data...
Loading historical data...
Loading historical data...
Loading historical data...
Loading historical data...
Loading historical data...
Loading historical data...

Documentation

Showing up to 5 results
|